Theta_e
285 288 293 294 294 294 295 295 296 296 297 296 297 297 296 295 295 294 294 293 292 291 290 290 289 289 288 288 288 287 284 283 282 280 281 281 284 284 284 284 285 285 285
282 284 286 288 290 292 293 293 294 295 296 296 297 296 296 295 295 294 292 293 292 290 291 290 289 290 288 287 287 287 287 286 283 280 280 279 282 283 283 282 285 287 285
279 281 282 284 285 286 289 292 293 294 295 296 296 295 295 295 294 294 294 293 292 292 291 289 289 288 287 288 287 286 286 287 285 283 279 277 277 278 279 282 283 282 284
277 278 279 281 283 284 286 288 292 293 294 294 295 295 295 294 294 293 293 292 292 291 291 290 289 289 289 287 287 286 285 284 283 279 276 274 275 278 277 275 278 278 280
275 275 277 280 282 283 284 285 287 291 292 293 293 293 293 293 293 292 292 291 291 290 289 289 288 288 289 289 288 285 285 283 280 278 275 271 272 274 275 275 275 279 277
273 273 275 277 279 280 283 284 285 286 286 290 290 291 290 293 294 293 292 291 290 289 287 286 286 285 287 290 291 290 288 285 282 278 274 276 275 277 275 275 275 275 272
272 273 273 275 276 277 280 282 283 284 285 285 284 283 284 288 293 293 292 290 288 288 287 286 284 286 285 287 290 290 289 290 287 284 276 277 275 278 277 272 277 276 272
270 271 272 273 274 275 276 278 280 283 284 284 285 285 283 282 291 293 291 286 287 287 287 287 287 284 286 286 286 286 285 286 285 284 282 280 279 279 278 278 276 268 265
268 269 270 272 273 274 274 275 277 279 283 284 285 285 285 285 287 291 290 281 283 284 285 285 286 284 287 289 285 284 281 281 286 287 285 286 287 286 279 274 268 267 263
267 268 269 270 272 272 273 274 276 277 279 283 284 285 285 285 287 287 290 284 278 279 276 281 285 285 288 290 285 284 281 282 279 277 278 284 286 284 281 273 272 265 263
266 267 268 269 270 271 272 274 274 275 277 278 279 282 283 285 286 288 290 281 283 279 280 277 281 288 289 290 289 284 285 281 282 279 278 276 278 278 277 272 271 268 263
265 265 266 267 269 269 270 271 273 274 274 276 276 277 278 280 284 288 289 289 287 282 280 280 281 287 289 290 289 288 288 283 281 279 279 279 277 276 276 272 268 266 266
263 263 264 265 267 267 268 268 269 272 272 274 275 275 275 278 281 285 286 288 288 285 284 284 286 288 289 289 290 288 284 280 281 279 279 279 278 276 271 267 262 261 262
260 261 262 262 263 265 266 268 268 269 270 272 273 273 274 276 278 280 281 283 284 285 286 286 287 287 287 287 285 287 284 282 281 281 280 272 271 270 268 266 265 264 266
260 260 261 262 262 263 264 265 267 269 270 271 272 273 273 274 277 280 280 281 285 285 284 284 284 283 283 285 285 286 284 281 281 279 275 273 272 272 269 266 266 265 266
259 259 259 260 260 260 261 262 266 269 271 272 273 274 275 277 278 279 280 282 283 286 285 284 283 283 283 283 283 284 283 282 281 279 277 275 274 273 271 269 265 266 266
257 258 258 258 258 258 258 259 258 262 266 268 270 271 272 274 276 277 278 280 281 282 284 284 284 283 283 283 283 283 282 282 282 279 278 276 275 274 272 271 268 267 265
253 255 256 256 256 256 257 257 257 256 256 258 264 266 269 271 273 275 277 277 274 280 284 284 284 284 283 283 282 282 282 281 280 279 278 277 275 274 272 272 271 270 266
253 254 255 255 255 255 255 255 255 255 255 256 257 261 264 268 270 272 273 269 270 272 275 280 285 284 283 283 283 283 282 281 279 279 278 277 276 274 274 273 273 272 267
250 252 253 253 253 253 253 253 253 253 254 254 255 256 257 259 260 262 265 266 268 270 272 274 276 283 284 284 283 282 281 280 279 278 278 277 277 276 275 274 273 271 269
251 252 252 252 251 251 251 251 252 253 253 253 254 257 263 261 261 261 259 262 264 266 269 270 272 274 279 284 283 282 281 280 279 278 278 277 277 276 276 275 273 272 269
251 251 251 250 251 251 251 251 252 252 252 253 254 255 262 259 258 257 257 259 260 263 265 267 269 272 277 281 284 283 281 280 279 279 278 278 277 277 276 274 273 271 269
251 251 251 251 251 251 251 251 251 251 252 252 253 254 254 255 255 255 256 258 259 261 263 265 267 269 272 275 280 284 282 281 280 280 279 278 277 277 276 273 272 270 270
251 251 251 251 251 251 251 251 252 252 252 252 252 253 253 254 254 255 256 258 259 259 261 262 264 265 269 272 275 275 284 284 282 281 280 279 277 277 276 274 273 272 271
250 250 250 250 250 250 250 250 250 250 251 251 252 252 253 254 254 255 256 256 257 258 259 260 261 262 264 266 270 273 274 282 283 282 281 280 278 277 276 274 273 272 271
253 252 252 252 251 251 250 250 251 251 251 251 251 252 253 253 254 254 255 255 255 257 258 260 261 261 263 265 265 272 273 274 282 282 281 280 279 277 277 275 273 272 271
Wind_Speed
18 16 10 5 1 7 7 8 9 8 9 11 13 13 13 13 13 12 11 10 12 9 7 10 10 8 6 5 4 3 3 4 4 3 1 2 3 4 4 5 5 5 5
17 16 15 14 11 5 3 7 7 9 9 11 12 13 13 14 13 14 12 12 13 12 11 10 10 7 8 6 5 6 5 4 4 5 3 2 5 3 4 5 4 4 4
16 16 16 16 14 13 10 6 5 8 9 10 11 12 13 13 13 13 13 13 14 13 12 12 11 10 7 6 5 6 4 3 3 3 3 0 2 1 3 4 3 4 4
16 16 17 18 16 13 12 12 5 6 8 9 11 12 12 12 13 13 13 12 12 10 11 12 12 14 13 11 9 7 5 4 3 3 1 1 2 2 1 2 5 2 8
16 17 17 16 15 16 15 14 12 6 3 5 8 7 9 10 9 12 12 12 12 10 10 10 10 11 12 13 9 8 8 5 3 3 2 1 2 2 1 2 3 8 5
16 17 16 16 16 16 16 16 14 14 11 4 3 5 8 8 13 17 15 11 11 12 11 9 7 8 11 17 15 17 15 11 8 4 3 4 3 3 2 2 1 4 6
16 16 17 17 17 16 15 15 15 13 11 11 7 3 2 5 12 17 17 10 11 11 10 9 7 6 9 10 14 16 14 15 8 8 6 6 4 5 4 2 2 1 4
16 16 17 17 16 16 15 16 16 12 10 8 8 7 5 3 5 12 15 6 8 9 11 11 11 9 11 11 10 9 9 9 7 6 6 5 4 5 4 3 3 2 3
16 16 16 16 15 15 16 15 15 13 11 9 6 7 6 6 7 5 10 4 3 7 7 8 10 9 14 18 12 11 6 6 7 10 8 8 9 9 9 4 1 2 3
15 14 14 14 14 14 14 14 12 12 12 11 10 8 6 6 10 10 8 4 3 3 1 5 12 11 17 21 13 12 11 11 8 3 3 6 7 8 11 3 4 3 1
12 12 12 12 13 13 13 11 11 10 11 12 13 12 13 12 9 11 8 2 3 3 4 3 4 14 18 22 18 12 12 8 11 6 4 3 4 4 5 4 4 4 3
11 11 11 11 10 10 12 11 11 9 9 10 11 10 10 12 17 15 13 8 4 4 4 3 4 14 17 20 17 15 13 11 7 7 6 6 6 5 4 4 4 3 2
9 9 9 10 9 11 11 10 8 8 7 7 7 8 9 9 10 20 17 15 9 2 3 6 10 14 17 15 20 17 12 7 8 7 8 7 6 4 5 4 3 2 3
12 10 8 7 8 7 7 7 7 6 7 7 6 6 7 8 8 9 10 9 8 4 3 5 7 8 10 10 7 12 8 8 9 9 7 3 4 3 3 3 3 2 1
8 8 8 6 7 7 7 7 7 7 8 7 6 7 7 7 6 15 16 11 7 6 3 2 3 3 5 6 6 8 8 7 7 5 4 5 4 5 3 2 3 2 2
10 8 7 7 7 8 8 8 10 14 15 15 17 13 8 16 20 19 21 20 22 18 3 3 4 4 6 6 7 7 8 9 8 7 6 7 7 7 6 4 2 3 3
8 10 7 8 8 8 8 9 11 8 15 17 15 17 19 20 21 21 20 19 19 18 5 4 5 5 6 6 7 8 8 8 8 8 8 8 7 7 9 6 3 3 2
7 9 7 7 7 7 7 8 8 9 10 8 10 15 17 20 21 20 21 17 8 7 6 5 5 6 6 7 7 7 7 7 8 8 8 9 8 9 8 8 8 6 3
6 6 6 7 7 8 8 8 8 9 10 9 8 9 9 18 20 20 20 7 6 5 6 8 5 5 7 7 7 7 8 8 8 8 8 8 9 9 9 8 8 9 6
5 10 9 6 6 6 6 7 7 8 8 9 9 7 5 7 7 6 6 6 6 5 5 5 7 7 7 7 7 7 8 8 8 8 9 9 9 9 9 9 9 9 6
6 6 8 6 7 7 6 7 7 8 8 9 9 9 19 11 9 7 4 5 6 7 6 5 6 8 9 7 7 7 8 8 9 9 9 9 9 9 8 8 8 8 7
6 7 7 7 7 7 7 7 8 8 9 10 9 10 22 10 8 8 8 8 8 8 7 8 8 8 8 8 7 8 9 9 9 9 9 9 10 10 9 9 10 9 9
6 7 7 7 8 9 8 8 9 9 10 10 10 9 8 9 9 9 9 9 8 8 8 8 8 9 8 9 9 8 9 9 10 11 10 10 10 10 10 11 12 11 11
7 8 9 9 8 8 9 10 10 12 12 11 10 10 9 10 10 10 10 9 9 8 8 8 7 8 10 9 7 8 7 8 8 11 14 11 11 12 11 11 12 14 12
8 8 9 9 9 9 9 10 10 11 11 10 10 10 10 10 11 11 10 9 9 10 10 9 9 10 14 15 12 12 10 12 13 13 11 13 14 17 14 12 13 13 14
9 10 10 9 10 10 10 10 11 10 11 10 10 11 11 11 11 11 11 10 9 10 11 10 11 12 12 10 9 13 13 13 12 18 12 12 12 12 12 14 19 13 16
Wind_Direction
2 3 9 354 273 161 170 177 176 173 174 175 184 182 180 183 184 185 189 180 188 183 179 180 183 161 177 167 151 143 139 126 135 284 207 249 251 233 279 270 275 272 267
1 7 14 19 16 356 270 178 179 183 183 180 185 186 186 188 185 188 184 183 185 183 185 180 186 173 176 163 168 171 162 156 131 171 215 258 229 236 254 272 289 286 294
5 10 12 16 14 8 356 294 211 182 187 188 184 188 191 191 186 191 191 187 192 193 187 182 180 171 170 174 169 173 161 144 138 134 202 215 280 278 298 265 280 269 301
11 15 15 11 8 3 358 357 282 222 192 187 190 194 192 188 190 190 191 191 191 189 184 188 180 187 184 175 178 179 156 157 140 128 157 274 235 299 276 306 325 333 321
15 18 14 6 9 8 6 4 3 351 268 220 183 184 183 184 188 188 189 189 186 186 186 186 188 191 182 179 169 172 161 160 142 151 161 146 258 306 217 290 305 319 316
17 17 11 9 10 9 7 9 11 10 4 351 219 191 177 190 193 190 186 190 188 187 190 191 180 170 177 177 182 179 179 174 184 159 170 192 226 206 177 171 326 356 327
17 15 12 8 9 8 4 6 6 7 2 9 1 359 230 215 197 192 191 188 185 191 190 184 177 183 170 179 185 177 188 194 175 174 172 188 194 192 144 158 182 210 250
12 10 8 6 7 5 5 6 1 354 1 1 358 356 332 311 341 207 191 176 187 190 189 187 186 174 184 175 170 178 186 195 190 172 181 161 164 156 154 155 147 218 304
9 3 359 357 359 2 5 0 359 353 356 358 355 358 357 347 326 285 184 169 182 193 184 176 182 176 185 174 170 181 180 206 193 173 174 171 178 179 154 117 86 64 317
360 351 351 352 355 356 354 355 354 359 355 360 0 4 4 360 354 340 193 167 157 167 186 183 185 183 180 182 181 176 192 203 174 136 154 190 192 152 163 140 148 149 197
346 344 347 350 350 352 343 345 349 358 1 4 4 5 9 3 358 6 349 142 182 167 185 193 202 196 185 188 187 183 201 146 184 166 149 137 136 157 158 152 160 138 157
344 340 339 341 345 345 343 336 344 358 3 4 1 359 357 353 354 12 13 358 220 165 194 191 192 200 197 196 191 199 187 150 156 167 171 184 184 189 178 160 165 173 194
336 330 328 330 341 340 338 330 339 350 358 357 357 355 347 347 346 356 357 4 359 258 186 202 201 203 206 205 203 195 178 161 166 177 188 195 195 155 123 102 64 57 260
327 325 325 322 333 330 326 320 323 343 344 342 342 344 337 332 341 344 342 336 337 343 296 225 207 196 192 192 191 189 184 181 182 187 189 123 109 120 122 136 129 144 111
308 310 314 318 317 322 312 312 324 318 311 316 321 325 321 316 322 324 326 322 319 297 291 209 201 179 181 185 184 188 177 175 185 154 144 146 150 156 145 140 118 144 181
309 310 311 311 318 318 318 316 307 303 309 313 309 303 299 304 308 312 313 317 324 320 261 215 207 197 193 187 180 184 183 183 189 176 161 160 171 172 163 156 128 159 179
288 300 305 308 308 309 316 314 314 311 306 306 307 309 306 302 306 303 305 311 314 313 268 225 222 198 198 190 191 191 192 191 178 182 170 170 166 164 165 174 160 135 168
274 283 284 291 294 296 299 299 299 304 310 306 302 303 303 302 302 302 302 315 312 315 280 254 229 206 203 196 192 189 189 181 187 184 182 173 176 169 168 178 184 178 143
273 283 281 283 281 281 286 286 286 287 287 292 301 299 299 306 306 301 304 298 286 287 296 314 246 220 209 201 195 192 189 187 187 188 188 180 177 175 178 175 177 173 139
260 258 260 258 258 255 258 265 271 274 281 286 291 292 295 297 288 283 279 289 293 282 282 300 302 294 214 212 204 192 188 184 187 188 191 185 180 182 177 173 170 170 176
270 268 259 259 257 260 259 262 266 268 268 270 275 277 279 279 288 277 271 279 282 282 286 291 294 293 298 216 213 203 193 185 186 188 188 184 179 181 177 171 162 161 160
255 261 260 256 261 258 255 253 255 258 261 264 268 267 278 283 281 280 280 274 269 271 278 284 282 275 273 296 211 209 202 190 183 186 187 184 182 182 172 168 158 155 161
243 248 251 254 251 256 256 251 251 251 255 256 259 263 259 259 257 255 257 262 259 262 264 265 264 271 276 275 300 215 200 197 193 183 180 183 183 180 174 172 160 158 167
267 263 263 261 259 254 254 257 256 254 256 258 258 256 255 257 258 258 257 258 263 266 269 273 274 278 277 277 292 312 240 199 193 190 178 183 184 178 173 171 167 168 163
250 256 257 259 257 253 256 251 251 250 251 252 255 254 253 252 255 256 255 253 254 256 255 252 257 259 263 269 269 288 298 274 189 189 185 180 184 180 177 171 167 163 162
252 249 250 253 254 254 253 257 254 251 250 249 247 248 250 250 248 247 248 248 248 250 251 255 256 251 257 261 262 270 283 292 238 188 187 180 178 178 177 171 166 165 163